Volver al catálogo

STARLINK-31878

ActivoComunicacionesVLEO
NORAD 60031·PAYLOAD·🇺🇸 United States

Lanzado Jun 8, 2024 desde Cape Canaveral Space Force Station

Loading…

Próximos Pases (próximas 24 horas)

TLE

ActualizadoSource: CelesTrak SupGP

Época: Sep 14, 2026, 14:25 UTC

1 60031C 24111R   26257.60118056 -.00021275  00000+0 -62933-3 0  2579
2 60031  53.1574 222.9887 0001636 105.3874 193.8529 15.34363032    17

Sigue STARLINK-31878 en tiempo real con AllMySat

Download on the App Store